Wind_Speed
43 43 43 44 44 44 45 46 46 46 45 45 45 45 46 47 47 46 47 47 47 47 47 46 46 46 46 46 46 46 46 46 45 46 47 48 48 49 49 49 49 49 49
42 42 43 43 44 44 44 45 45 46 46 46 46 46 46 46 46 47 48 48 48 48 48 48 48 48 48 47 48 48 48 48 48 48 49 49 49 50 50 49 49 49 49
41 42 42 43 44 45 45 46 45 46 46 46 46 47 47 48 48 47 48 49 49 50 50 50 50 50 50 50 50 50 50 50 50 50 50 50 50 51 50 50 50 50 50
41 41 42 42 43 44 46 47 47 48 48 48 48 49 49 49 49 49 49 50 50 51 51 51 51 51 52 52 51 51 51 52 52 51 51 51 51 51 51 50 50 50 50
41 41 41 41 42 43 45 46 48 49 50 50 50 50 51 51 51 51 51 51 52 52 52 52 52 52 52 53 53 52 52 53 53 52 52 51 52 51 51 51 51 51 51
40 41 42 42 43 43 44 46 47 48 49 50 51 51 51 51 51 52 52 52 52 53 53 53 53 53 53 54 53 53 52 52 52 52 52 52 52 52 52 52 52 52 52
40 41 42 43 43 43 44 45 46 47 48 49 50 50 50 51 52 52 52 52 52 53 53 54 54 54 53 53 53 53 52 52 52 52 53 53 53 53 53 54 53 53 53
39 40 40 41 42 43 43 44 45 46 47 47 48 49 50 51 51 52 52 52 52 52 52 52 53 53 52 52 53 53 53 53 53 53 53 53 54 54 54 54 53 53 53
37 38 38 40 41 43 43 44 44 45 47 47 48 49 50 50 51 51 52 52 53 52 52 53 53 53 53 53 53 53 53 53 52 52 53 53 53 53 53 54 54 54 54
38 38 39 39 40 41 42 43 44 45 46 47 48 49 50 50 51 51 52 52 52 53 52 52 52 52 53 53 53 53 52 52 52 52 52 52 52 53 53 54 54 54 55
38 39 40 40 41 41 42 43 44 45 46 47 48 49 50 50 51 51 52 52 53 52 52 52 52 52 52 52 52 52 52 52 52 52 52 52 52 53 53 53 54 54 55
38 39 40 41 41 42 42 43 43 44 45 46 47 48 49 49 49 50 51 51 51 51 51 51 51 51 52 52 53 52 52 51 51 51 51 51 52 52 52 53 54 54 55
38 39 40 41 42 43 43 43 44 44 45 45 46 46 47 47 48 48 48 49 49 50 50 50 50 50 51 51 51 51 51 51 51 51 51 51 51 51 52 52 53 54 55
37 39 40 40 42 43 44 44 44 44 44 44 44 45 46 46 46 47 47 47 47 48 48 49 49 48 49 49 49 49 50 50 50 50 50 51 51 51 51 52 53 54 54
36 37 38 39 40 41 42 42 42 42 43 43 44 45 44 44 44 45 45 46 46 46 46 46 46 47 47 47 48 48 49 49 49 50 50 50 50 50 51 51 52 52 53
34 35 36 37 37 38 38 39 39 40 41 43 42 42 42 42 43 43 44 44 44 45 45 45 45 45 45 46 46 47 48 48 49 49 48 48 49 49 49 50 51 51 51
33 34 35 35 35 36 36 37 37 38 38 39 40 40 40 40 41 41 41 42 42 43 44 44 45 45 45 45 45 46 47 47 48 48 48 48 48 48 49 49 50 50 50
32 32 33 34 35 35 36 36 36 37 37 38 38 38 39 39 40 40 41 41 42 43 44 45 45 45 45 45 45 46 46 47 47 48 48 48 49 49 49 49 49 50 50
30 31 32 33 34 34 35 35 35 36 36 36 36 37 37 38 38 39 40 41 42 43 44 44 45 45 45 46 46 47 47 47 48 48 49 49 49 50 50 50 50 49 49
30 30 31 32 33 34 34 35 35 35 34 34 35 35 36 37 38 39 40 40 42 42 43 44 44 44 45 46 47 47 48 48 48 49 49 49 49 50 49 49 49 48 47
30 31 31 32 33 33 34 34 34 34 33 34 34 35 36 36 37 38 39 40 41 42 43 43 44 45 46 46 47 47 48 48 48 48 49 49 49 49 49 49 48 47 47
31 31 31 31 31 32 32 32 32 33 33 34 35 36 36 36 37 38 38 39 40 41 42 42 44 45 45 46 46 47 47 47 47 48 48 48 49 48 48 47 47 47 46
30 30 31 31 31 31 31 31 32 33 34 35 35 35 36 37 38 38 39 40 40 40 41 42 43 44 45 45 45 46 46 46 46 47 47 47 47 46 46 45 45 45 45
29 29 30 30 30 31 31 32 32 33 34 35 35 36 37 38 38 39 40 40 41 41 42 42 43 43 43 43 43 43 44 44 44 44 44 44 43 43 43 43 43 43 43
29 29 30 30 31 32 32 33 33 34 35 35 36 36 37 37 38 38 39 39 39 40 41 41 41 41 42 42 42 42 41 41 41 41 41 41 41 41 41 41 41 41 41
29 30 30 31 32 33 33 34 34 35 35 36 36 37 37 37 38 38 38 38 39 39 39 39 39 40 40 40 40 40 39 39 39 39 39 39 39 39 39 39 39 39 38
Wind_Direction
246 248 249 249 250 251 251 251 252 253 254 255 255 256 258 258 259 259 259 260 261 262 263 264 265 266 267 268 269 268 267 267 268 269 268 268 268 268 269 270 271 270 271
248 249 249 250 250 251 251 251 253 254 255 257 257 257 258 259 260 260 261 261 262 262 263 264 265 266 267 267 268 268 268 268 269 269 270 269 269 269 269 270 271 270 271
250 250 251 251 252 251 251 252 254 255 257 258 258 258 258 259 260 261 261 261 261 263 264 265 266 266 266 267 267 268 268 268 269 270 271 270 270 270 269 270 270 270 270
252 253 253 253 254 254 253 252 254 256 258 258 259 259 259 260 260 261 261 261 262 264 264 265 265 266 266 266 267 268 268 268 269 270 271 271 270 270 269 269 269 270 271
253 254 255 256 256 256 255 256 257 257 258 258 259 260 260 260 261 262 262 263 263 263 263 264 265 266 266 266 267 267 268 268 268 269 270 270 270 269 269 268 269 270 271
255 255 256 256 257 258 258 258 258 258 259 259 259 260 260 261 262 262 263 263 263 263 264 264 265 265 266 266 267 268 269 269 269 269 269 270 270 269 268 268 270 270 271
255 256 257 257 258 259 259 259 258 259 259 259 259 260 260 261 262 262 262 263 264 264 264 264 265 266 267 267 267 267 268 268 268 268 269 269 269 269 268 268 269 270 272
256 257 258 258 259 259 260 260 259 259 259 260 260 260 261 262 262 263 263 263 263 264 264 264 265 265 265 266 267 268 269 269 268 268 268 268 268 268 269 269 269 270 272
258 259 260 260 260 260 261 261 261 261 260 260 260 261 261 263 263 264 264 264 264 264 265 265 265 265 265 266 267 269 269 269 269 268 268 268 268 269 269 269 269 270 272
260 260 261 262 262 262 262 263 263 263 263 263 263 262 262 263 265 265 265 265 265 265 266 266 266 267 267 267 267 268 268 268 268 268 268 268 268 269 269 270 270 270 271
261 261 262 263 264 264 264 265 265 265 265 265 264 264 264 264 265 265 265 265 265 266 266 266 267 267 267 267 267 267 267 268 268 268 268 268 269 269 269 270 270 271 272
263 263 263 264 264 264 265 265 266 266 267 267 266 265 264 265 265 266 265 265 265 265 265 266 266 266 266 266 266 267 267 267 267 267 268 268 269 270 269 270 271 272 272
264 264 265 265 265 264 265 266 266 266 267 267 266 266 265 265 265 265 266 266 266 266 266 266 266 266 266 266 266 266 266 267 268 268 268 269 269 270 270 271 271 272 272
265 265 266 266 266 265 264 266 267 267 267 267 267 266 266 265 265 264 265 265 265 266 266 265 266 266 266 266 265 265 266 266 267 267 268 269 269 270 271 271 271 272 273
267 267 268 268 267 266 266 266 267 267 267 266 266 265 265 266 266 266 265 265 265 265 265 265 265 266 267 267 267 266 266 267 267 268 268 269 270 271 271 271 272 273 273
268 267 268 268 267 266 267 267 268 268 268 266 266 266 266 266 266 266 266 265 265 265 265 266 266 267 267 268 267 267 267 267 267 268 269 269 270 270 271 272 272 273 274
268 268 268 268 268 268 268 269 270 270 270 269 267 266 266 266 266 266 266 266 266 266 266 266 267 267 268 268 268 268 268 268 268 268 268 269 270 270 271 272 273 274 275
269 269 270 269 270 270 271 271 271 271 271 270 269 268 267 267 268 267 267 267 266 266 267 267 268 268 268 268 268 268 269 269 268 269 269 269 270 271 272 273 274 275 275
271 271 271 272 272 272 272 272 273 272 272 271 270 269 268 268 268 268 268 268 268 268 268 268 268 268 268 269 269 270 270 270 269 270 270 271 271 271 272 272 273 275 275
273 273 274 274 275 274 274 275 275 274 273 272 271 270 270 269 269 269 270 270 270 270 269 269 269 270 270 270 270 270 270 271 271 271 271 271 271 271 271 272 273 273 274
273 274 275 276 276 275 275 275 275 274 274 274 273 272 272 271 271 271 272 271 271 271 271 270 270 271 270 270 270 270 271 271 272 272 272 271 271 271 271 271 272 272 273
276 276 276 277 277 276 276 276 275 275 275 275 275 274 273 273 273 274 274 274 274 273 273 272 272 272 272 271 271 271 271 272 272 272 272 271 271 271 270 270 270 271 272
279 279 278 278 277 277 277 277 277 277 276 276 275 275 275 275 275 275 276 276 275 275 274 274 274 273 273 273 272 272 272 272 272 272 272 271 270 269 268 268 269 270 271
281 280 280 279 279 279 279 279 280 280 279 278 277 277 277 277 277 277 277 276 276 276 276 275 275 274 274 273 273 273 273 273 272 272 271 270 269 268 267 267 268 269 270
282 282 282 281 281 281 281 281 281 281 281 280 279 278 278 278 278 278 278 277 277 277 277 276 275 274 274 274 274 274 274 273 273 272 271 269 268 268 267 267 267 268 269
284 284 283 283 283 283 282 282 282 282 282 281 281 280 279 279 279 279 278 278 278 277 278 277 276 275 274 274 274 274 273 273 273 272 271 270 269 268 267 267 267 267 268
Height
5612 5615 5617 5620 5622 5625 5627 5629 5631 5633 5635 5637 5638 5640 5642 5643 5644 5645 5646 5647 5648 5648 5648 5649 5648 5648 5648 5648 5647 5646 5646 5646 5647 5646 5645 5645 5645 5645 5645 5645 5645 5645 5644
5601 5603 5606 5608 5611 5613 5615 5617 5619 5621 5623 5625 5626 5628 5630 5631 5632 5633 5634 5634 5635 5635 5636 5636 5636 5636 5636 5635 5635 5634 5634 5634 5634 5634 5633 5632 5632 5632 5632 5632 5631 5631 5631
5590 5592 5595 5597 5599 5601 5604 5606 5607 5609 5611 5612 5614 5615 5617 5618 5619 5620 5621 5621 5622 5622 5623 5623 5623 5623 5622 5622 5622 5621 5621 5620 5620 5620 5620 5619 5619 5619 5619 5618 5618 5618 5617
5580 5582 5584 5586 5588 5589 5591 5593 5595 5596 5598 5600 5601 5603 5604 5605 5606 5606 5607 5608 5608 5609 5609 5609 5609 5609 5609 5608 5608 5608 5607 5606 5606 5606 5606 5606 5605 5605 5605 5605 5605 5604 5604
5569 5571 5573 5574 5576 5577 5579 5580 5582 5583 5585 5587 5588 5589 5590 5591 5592 5592 5593 5594 5594 5594 5594 5595 5595 5594 5594 5594 5594 5594 5593 5592 5592 5592 5592 5592 5591 5591 5591 5591 5591 5591 5590
5558 5559 5561 5563 5564 5565 5566 5567 5569 5570 5571 5573 5574 5575 5576 5577 5577 5578 5579 5579 5579 5579 5580 5580 5580 5580 5579 5579 5579 5579 5579 5578 5578 5578 5577 5577 5577 5577 5577 5577 5577 5577 5577
5546 5548 5549 5551 5552 5553 5554 5555 5556 5557 5558 5559 5560 5561 5562 5562 5563 5563 5564 5564 5564 5564 5564 5565 5565 5565 5564 5564 5564 5564 5564 5563 5563 5563 5563 5563 5563 5563 5563 5563 5562 5562 5562
5535 5536 5537 5538 5539 5540 5541 5542 5542 5543 5544 5545 5546 5547 5548 5548 5548 5549 5549 5549 5549 5549 5549 5549 5550 5550 5549 5549 5549 5549 5549 5549 5549 5548 5549 5548 5548 5548 5548 5548 5548 5548 5547
5524 5525 5526 5527 5527 5528 5529 5529 5530 5530 5531 5532 5532 5533 5533 5534 5534 5534 5534 5534 5534 5534 5534 5534 5534 5534 5535 5534 5534 5535 5534 5534 5533 5533 5533 5533 5533 5533 5533 5533 5533 5533 5533
5513 5514 5515 5515 5516 5516 5516 5517 5517 5517 5517 5518 5518 5518 5519 5519 5519 5519 5519 5519 5519 5519 5519 5519 5519 5519 5519 5518 5519 5519 5519 5519 5519 5518 5518 5518 5518 5518 5518 5518 5518 5517 5517
5502 5503 5503 5504 5504 5504 5504 5504 5504 5504 5504 5504 5504 5504 5504 5504 5504 5504 5503 5503 5503 5503 5503 5503 5504 5503 5503 5503 5503 5504 5504 5504 5503 5503 5503 5504 5503 5503 5503 5503 5502 5502 5502
5491 5491 5491 5491 5491 5491 5491 5491 5490 5490 5490 5489 5489 5489 5489 5489 5489 5489 5488 5488 5488 5488 5488 5488 5488 5488 5488 5488 5488 5489 5489 5489 5489 5489 5489 5489 5489 5488 5488 5487 5487 5486 5485
5479 5479 5478 5478 5478 5478 5478 5478 5477 5477 5476 5476 5475 5475 5475 5474 5474 5474 5474 5473 5473 5473 5473 5473 5473 5473 5473 5473 5473 5474 5474 5474 5474 5474 5474 5474 5474 5473 5472 5472 5471 5470 5470
5467 5467 5466 5466 5465 5465 5465 5464 5464 5463 5462 5462 5461 5461 5461 5460 5460 5459 5459 5459 5459 5458 5458 5458 5458 5458 5458 5458 5459 5459 5459 5459 5459 5459 5459 5459 5459 5458 5457 5457 5456 5455 5454
5455 5455 5454 5454 5453 5452 5452 5451 5450 5450 5449 5448 5448 5447 5447 5447 5446 5445 5445 5445 5445 5445 5444 5444 5444 5444 5444 5444 5444 5444 5444 5444 5444 5444 5444 5444 5444 5443 5443 5442 5441 5440 5439
5444 5443 5443 5442 5441 5440 5439 5438 5437 5437 5435 5435 5434 5434 5433 5433 5432 5432 5431 5431 5430 5430 5430 5430 5430 5430 5430 5430 5430 5430 5430 5430 5430 5430 5430 5429 5429 5428 5428 5427 5426 5425 5424
5433 5432 5431 5431 5430 5429 5428 5427 5426 5425 5423 5422 5421 5421 5420 5420 5419 5419 5418 5417 5417 5416 5417 5417 5417 5417 5417 5416 5416 5416 5416 5416 5415 5415 5415 5415 5414 5414 5413 5412 5411 5410 5408
5422 5421 5420 5419 5419 5418 5417 5416 5414 5413 5412 5410 5409 5408 5408 5407 5406 5406 5405 5405 5404 5404 5404 5403 5403 5403 5403 5403 5402 5402 5401 5401 5401 5401 5400 5400 5399 5399 5398 5397 5396 5395 5393
5411 5411 5410 5409 5408 5407 5405 5404 5403 5401 5400 5399 5398 5397 5396 5395 5394 5393 5392 5392 5391 5391 5390 5390 5389 5389 5389 5388 5388 5388 5387 5387 5386 5386 5385 5385 5384 5383 5383 5382 5381 5380 5378
5402 5401 5399 5398 5397 5396 5394 5393 5392 5390 5389 5388 5386 5385 5384 5383 5382 5381 5380 5379 5378 5378 5377 5376 5376 5375 5374 5374 5373 5373 5372 5372 5371 5370 5370 5369 5369 5368 5367 5367 5366 5365 5364
5392 5390 5389 5388 5387 5385 5384 5382 5381 5379 5378 5376 5375 5374 5372 5371 5370 5369 5368 5366 5365 5364 5363 5363 5362 5361 5360 5359 5359 5358 5357 5357 5356 5355 5354 5354 5353 5353 5352 5351 5351 5350 5349
5382 5380 5379 5378 5376 5374 5373 5371 5370 5368 5367 5365 5364 5362 5361 5360 5358 5357 5355 5354 5353 5351 5350 5349 5348 5347 5346 5345 5344 5343 5342 5341 5341 5340 5339 5338 5338 5337 5337 5336 5336 5336 5335
5372 5370 5369 5367 5366 5364 5362 5361 5359 5358 5356 5354 5352 5351 5349 5348 5346 5345 5343 5341 5340 5338 5337 5335 5334 5333 5331 5330 5329 5328 5327 5326 5325 5324 5323 5323 5322 5322 5322 5322 5321 5321 5321
5362 5360 5359 5357 5355 5354 5352 5350 5348 5346 5344 5342 5341 5339 5337 5335 5334 5332 5330 5328 5326 5325 5323 5322 5320 5319 5317 5316 5315 5314 5313 5311 5310 5309 5308 5308 5307 5307 5307 5307 5307 5307 5307
5353 5351 5349 5347 5345 5343 5341 5339 5337 5335 5333 5331 5329 5327 5325 5323 5321 5319 5317 5315 5313 5311 5309 5308 5306 5305 5304 5302 5301 5300 5299 5297 5296 5295 5294 5294 5294 5294 5293 5294 5294 5294 5294
5343 5341 5339 5336 5334 5332 5330 5328 5326 5323 5321 5319 5317 5314 5312 5310 5308 5306 5304 5302 5300 5298 5296 5295 5293 5292 5290 5289 5288 5286 5285 5284 5283 5281 5281 5281 5281 5281 5280 5281 5281 5281 5281